Location: Elstree
(51.6403°N, 0.2969°W)
Time: 19:37:34
(UTC+00:00)

MOS 1 - Pass Details

Date: 03 March 2021
Orbit: 878 x 892 km, 99.1° (Epoch: 15 April)

Event Time Altitude Azimuth Distance (km) Brightness Sun altitude
Exits shadow 19:26:05 14° 145° (SE) 2,289 6.0 -16.4°
Maximum altitude 19:30:59 61° 68° (ENE) 1,005 4.3 -17.1°
Drops below altitude 10° 19:36:35 10° 349° (N) 2,559 7.0 -18.0°
Sets 19:39:00 0° 347° (NNW) 3,500 7.8 -18.3°
